Time,TemperatureF,DewpointF,PressureIn,WindDirection,WindDirectionDegrees,WindSpeedMPH,WindSpeedGustMPH,Humidity,HourlyPrecipIn,Conditions,Clouds,dailyrainin,SolarRadiationWatts/m^2,SoftwareType,DateUTC
2013-10-24 00:21:00,63.0,19.0,-100.00,NNE,17,13.0,17.0,18,0.00,,,0.00,0.000000,,2013-10-24 07:21:00,
2013-10-24 00:32:00,63.0,19.0,-100.00,NNE,17,13.0,17.0,18,0.00,,,0.00,0.000000,,2013-10-24 07:32:00,
2013-10-24 00:42:00,63.0,19.0,-100.00,NNE,17,13.0,17.0,18,0.00,,,0.00,0.000000,,2013-10-24 07:42:00,
2013-10-24 00:52:00,63.0,19.0,-100.00,NNE,17,13.0,17.0,18,0.00,,,0.00,0.000000,,2013-10-24 07:52:00,
2013-10-24 01:21:00,60.0,18.0,-100.00,North,8,12.0,18.0,19,0.00,,,0.00,0.000000,,2013-10-24 08:21:00,
2013-10-24 01:32:00,60.0,18.0,-100.00,North,8,12.0,18.0,19,0.00,,,0.00,0.000000,,2013-10-24 08:32:00,
2013-10-24 01:42:00,60.0,18.0,-100.00,North,8,12.0,18.0,19,0.00,,,0.00,0.000000,,2013-10-24 08:42:00,
2013-10-24 01:53:00,60.0,18.0,-100.00,North,8,12.0,18.0,19,0.00,,,0.00,0.000000,,2013-10-24 08:53:00,
2013-10-24 02:22:00,61.0,18.0,-100.00,North,11,14.0,18.0,19,0.00,,,0.00,0.000000,,2013-10-24 09:22:00,
2013-10-24 02:33:00,61.0,18.0,-100.00,North,11,14.0,18.0,19,0.00,,,0.00,0.000000,,2013-10-24 09:33:00,
2013-10-24 02:43:00,61.0,18.0,-100.00,North,11,14.0,18.0,19,0.00,,,0.00,0.000000,,2013-10-24 09:43:00,
2013-10-24 02:53:00,61.0,18.0,-100.00,North,11,14.0,18.0,19,0.00,,,0.00,0.000000,,2013-10-24 09:53:00,
2013-10-24 03:23:00,60.0,19.0,-100.00,North,5,8.0,20.0,20,0.00,,,0.00,0.000000,,2013-10-24 10:23:00,
2013-10-24 03:33:00,60.0,19.0,-100.00,North,5,8.0,20.0,20,0.00,,,0.00,0.000000,,2013-10-24 10:33:00,
2013-10-24 03:43:00,60.0,19.0,-100.00,North,5,8.0,20.0,20,0.00,,,0.00,0.000000,,2013-10-24 10:43:00,
2013-10-24 03:52:00,60.0,19.0,-100.00,North,5,8.0,20.0,20,0.00,,,0.00,0.000000,,2013-10-24 10:52:00,
2013-10-24 04:22:00,59.0,19.0,-100.00,NNE,12,7.0,17.0,21,0.00,,,0.00,0.000000,,2013-10-24 11:22:00,
2013-10-24 04:33:00,59.0,19.0,-100.00,NNE,12,7.0,17.0,21,0.00,,,0.00,0.000000,,2013-10-24 11:33:00,
2013-10-24 04:42:00,59.0,19.0,-100.00,NNE,12,7.0,17.0,21,0.00,,,0.00,0.000000,,2013-10-24 11:42:00,
2013-10-24 04:52:00,59.0,19.0,-100.00,NNE,12,7.0,17.0,21,0.00,,,0.00,0.000000,,2013-10-24 11:52:00,
2013-10-24 05:22:00,57.0,17.0,-100.00,North,350,9.0,16.0,21,0.00,,,0.00,0.000000,,2013-10-24 12:22:00,
2013-10-24 05:32:00,57.0,17.0,-100.00,North,350,9.0,16.0,21,0.00,,,0.00,0.000000,,2013-10-24 12:32:00,
2013-10-24 05:42:00,57.0,17.0,-100.00,North,350,9.0,16.0,21,0.00,,,0.00,0.000000,,2013-10-24 12:42:00,
2013-10-24 05:52:00,57.0,17.0,-100.00,North,350,9.0,16.0,21,0.00,,,0.00,0.000000,,2013-10-24 12:52:00,
2013-10-24 06:22:00,54.0,18.0,-100.00,West,280,5.0,20.0,24,0.00,,,0.00,0.000000,,2013-10-24 13:22:00,
2013-10-24 06:32:00,54.0,18.0,-100.00,West,280,5.0,20.0,24,0.00,,,0.00,0.000000,,2013-10-24 13:32:00,
2013-10-24 06:42:00,54.0,18.0,-100.00,West,280,5.0,20.0,24,0.00,,,0.00,0.000000,,2013-10-24 13:42:00,
2013-10-24 06:52:00,54.0,18.0,-100.00,West,280,5.0,20.0,24,0.00,,,0.00,0.000000,,2013-10-24 13:52:00,
2013-10-24 07:21:00,52.0,20.0,-100.00,NNE,12,5.0,8.0,28,0.00,,,0.00,0.000000,,2013-10-24 14:21:00,
2013-10-24 07:32:00,52.0,20.0,-100.00,NNE,12,5.0,8.0,28,0.00,,,0.00,0.000000,,2013-10-24 14:32:00,
2013-10-24 07:42:00,52.0,20.0,-100.00,NNE,12,5.0,8.0,28,0.00,,,0.00,0.000000,,2013-10-24 14:42:00,
2013-10-24 07:51:00,52.0,20.0,-100.00,NNE,12,5.0,8.0,28,0.00,,,0.00,0.000000,,2013-10-24 14:51:00,
2013-10-24 08:21:00,55.0,19.0,-100.00,NNE,19,8.0,11.0,24,0.00,,,0.00,10.000000,,2013-10-24 15:21:00,
2013-10-24 08:33:00,55.0,19.0,-100.00,NNE,19,8.0,11.0,24,0.00,,,0.00,10.000000,,2013-10-24 15:33:00,
2013-10-24 08:43:00,55.0,19.0,-100.00,NNE,19,8.0,11.0,24,0.00,,,0.00,10.000000,,2013-10-24 15:43:00,
2013-10-24 08:53:00,55.0,19.0,-100.00,NNE,19,8.0,11.0,24,0.00,,,0.00,10.000000,,2013-10-24 15:53:00,
2013-10-24 09:23:00,58.0,20.0,-100.00,SSE,162,1.0,12.0,23,0.00,,,0.00,207.000000,,2013-10-24 16:23:00,
2013-10-24 09:32:00,58.0,20.0,-100.00,SSE,162,1.0,12.0,23,0.00,,,0.00,207.000000,,2013-10-24 16:32:00,
2013-10-24 09:42:00,58.0,20.0,-100.00,SSE,162,1.0,12.0,23,0.00,,,0.00,207.000000,,2013-10-24 16:42:00,
2013-10-24 09:53:00,58.0,20.0,-100.00,SSE,162,1.0,12.0,23,0.00,,,0.00,207.000000,,2013-10-24 16:53:00,
2013-10-24 10:22:00,59.0,20.0,-100.00,South,174,8.0,10.0,22,0.00,,,0.00,438.000000,,2013-10-24 17:22:00,
2013-10-24 10:34:00,59.0,20.0,-100.00,South,174,8.0,10.0,22,0.00,,,0.00,438.000000,,2013-10-24 17:34:00,
2013-10-24 10:43:00,59.0,20.0,-100.00,South,174,8.0,10.0,22,0.00,,,0.00,438.000000,,2013-10-24 17:43:00,
2013-10-24 10:52:00,59.0,20.0,-100.00,South,174,8.0,10.0,22,0.00,,,0.00,438.000000,,2013-10-24 17:52:00,
2013-10-24 11:22:00,67.0,21.0,-100.00,South,170,7.0,11.0,17,-99.99,,,-99.99,611.000000,,2013-10-24 18:22:00,
2013-10-24 11:32:00,67.0,21.0,-100.00,South,170,7.0,11.0,17,-99.99,,,-99.99,611.000000,,2013-10-24 18:32:00,
2013-10-24 11:42:00,67.0,21.0,-100.00,South,170,7.0,11.0,17,-99.99,,,-99.99,611.000000,,2013-10-24 18:42:00,
2013-10-24 11:53:00,67.0,21.0,-100.00,South,170,7.0,11.0,17,-99.99,,,-99.99,611.000000,,2013-10-24 18:53:00,
2013-10-24 12:22:00,72.0,17.0,-100.00,SSE,167,6.0,10.0,12,0.00,,,0.00,734.000000,,2013-10-24 19:22:00,
2013-10-24 12:32:00,72.0,17.0,-100.00,SSE,167,6.0,10.0,12,0.00,,,0.00,734.000000,,2013-10-24 19:32:00,
2013-10-24 12:43:00,72.0,17.0,-100.00,SSE,167,6.0,10.0,12,0.00,,,0.00,734.000000,,2013-10-24 19:43:00,
2013-10-24 12:53:00,72.0,17.0,-100.00,SSE,167,6.0,10.0,12,0.00,,,0.00,734.000000,,2013-10-24 19:53:00,
2013-10-24 13:22:00,74.0,20.0,-100.00,South,173,11.0,16.0,13,0.00,,,0.00,787.000000,,2013-10-24 20:22:00,
2013-10-24 13:32:00,74.0,20.0,-100.00,South,173,11.0,16.0,13,0.00,,,0.00,787.000000,,2013-10-24 20:32:00,
2013-10-24 13:42:00,74.0,20.0,-100.00,South,173,11.0,16.0,13,0.00,,,0.00,787.000000,,2013-10-24 20:42:00,
2013-10-24 13:53:00,74.0,20.0,-100.00,South,173,11.0,16.0,13,0.00,,,0.00,787.000000,,2013-10-24 20:53:00,
2013-10-24 14:22:00,75.0,19.0,-100.00,South,183,17.0,21.0,12,0.00,,,0.00,771.000000,,2013-10-24 21:22:00,
2013-10-24 14:34:00,75.0,19.0,-100.00,South,183,17.0,21.0,12,0.00,,,0.00,771.000000,,2013-10-24 21:34:00,
2013-10-24 14:43:00,75.0,19.0,-100.00,South,183,17.0,21.0,12,0.00,,,0.00,771.000000,,2013-10-24 21:43:00,
2013-10-24 14:54:00,75.0,19.0,-100.00,South,183,17.0,21.0,12,0.00,,,0.00,771.000000,,2013-10-24 21:54:00,
2013-10-24 15:24:00,80.0,27.0,-100.00,SSE,167,14.0,21.0,14,0.00,,,0.00,682.000000,,2013-10-24 22:24:00,
2013-10-24 15:34:00,80.0,27.0,-100.00,SSE,167,14.0,21.0,14,0.00,,,0.00,682.000000,,2013-10-24 22:34:00,
2013-10-24 15:43:00,80.0,27.0,-100.00,SSE,167,14.0,21.0,14,0.00,,,0.00,682.000000,,2013-10-24 22:43:00,
2013-10-24 15:54:00,80.0,27.0,-100.00,SSE,167,14.0,21.0,14,0.00,,,0.00,682.000000,,2013-10-24 22:54:00,
2013-10-24 16:22:00,79.0,26.0,-100.00,South,169,9.0,19.0,14,0.00,,,0.00,501.000000,,2013-10-24 23:22:00,
2013-10-24 16:34:00,79.0,26.0,-100.00,South,169,9.0,19.0,14,0.00,,,0.00,501.000000,,2013-10-24 23:34:00,
2013-10-24 16:43:00,79.0,26.0,-100.00,South,169,9.0,19.0,14,0.00,,,0.00,501.000000,,2013-10-24 23:43:00,
2013-10-24 16:53:00,79.0,26.0,-100.00,South,169,9.0,19.0,14,0.00,,,0.00,501.000000,,2013-10-24 23:53:00,
2013-10-24 17:21:00,78.0,25.0,-100.00,WNW,302,17.0,25.0,14,0.00,,,0.00,316.000000,,2013-10-25 00:21:00,
2013-10-24 17:33:00,78.0,25.0,-100.00,WNW,302,17.0,25.0,14,0.00,,,0.00,316.000000,,2013-10-25 00:33:00,
2013-10-24 17:42:00,78.0,25.0,-100.00,WNW,302,17.0,25.0,14,0.00,,,0.00,316.000000,,2013-10-25 00:42:00,
2013-10-24 17:52:00,78.0,25.0,-100.00,WNW,302,17.0,25.0,14,0.00,,,0.00,316.000000,,2013-10-25 00:52:00,
2013-10-24 18:21:00,72.0,32.0,-100.00,SSE,157,17.0,24.0,23,0.00,,,0.00,87.000000,,2013-10-25 01:21:00,
2013-10-24 18:32:00,72.0,32.0,-100.00,SSE,157,17.0,24.0,23,0.00,,,0.00,87.000000,,2013-10-25 01:32:00,
2013-10-24 18:42:00,72.0,32.0,-100.00,SSE,157,17.0,24.0,23,0.00,,,0.00,87.000000,,2013-10-25 01:42:00,
2013-10-24 18:53:00,72.0,32.0,-100.00,SSE,157,17.0,24.0,23,0.00,,,0.00,87.000000,,2013-10-25 01:53:00,
2013-10-24 19:22:00,69.0,36.0,-100.00,SSE,162,19.0,28.0,30,0.00,,,0.00,1.000000,,2013-10-25 02:22:00,
2013-10-24 19:32:00,69.0,36.0,-100.00,SSE,162,19.0,28.0,30,0.00,,,0.00,1.000000,,2013-10-25 02:32:00,
2013-10-24 19:42:00,69.0,36.0,-100.00,SSE,162,19.0,28.0,30,0.00,,,0.00,1.000000,,2013-10-25 02:42:00,
2013-10-24 19:52:00,69.0,36.0,-100.00,SSE,162,19.0,28.0,30,0.00,,,0.00,1.000000,,2013-10-25 02:52:00,
2013-10-24 20:23:00,65.0,38.0,-100.00,South,176,5.0,22.0,37,0.00,,,0.00,0.000000,,2013-10-25 03:23:00,
2013-10-24 20:34:00,65.0,38.0,-100.00,South,176,5.0,22.0,37,0.00,,,0.00,0.000000,,2013-10-25 03:34:00,
2013-10-24 20:44:00,65.0,38.0,-100.00,South,176,5.0,22.0,37,0.00,,,0.00,0.000000,,2013-10-25 03:44:00,
2013-10-24 20:54:00,65.0,38.0,-100.00,South,176,5.0,22.0,37,0.00,,,0.00,0.000000,,2013-10-25 03:54:00,
2013-10-24 21:24:00,64.0,36.0,-100.00,North,5,5.0,8.0,35,0.00,,,0.00,0.000000,,2013-10-25 04:24:00,
2013-10-24 21:34:00,64.0,36.0,-100.00,North,5,5.0,8.0,35,0.00,,,0.00,0.000000,,2013-10-25 04:34:00,
2013-10-24 21:44:00,64.0,36.0,-100.00,North,5,5.0,8.0,35,0.00,,,0.00,0.000000,,2013-10-25 04:44:00,
2013-10-24 21:54:00,64.0,36.0,-100.00,North,5,5.0,8.0,35,0.00,,,0.00,0.000000,,2013-10-25 04:54:00,
2013-10-24 22:21:00,62.0,33.0,-100.00,North,3,7.0,12.0,33,0.00,,,0.00,0.000000,,2013-10-25 05:21:00,
2013-10-24 22:32:00,62.0,33.0,-100.00,North,3,7.0,12.0,33,0.00,,,0.00,0.000000,,2013-10-25 05:32:00,
2013-10-24 22:42:00,62.0,33.0,-100.00,North,3,7.0,12.0,33,0.00,,,0.00,0.000000,,2013-10-25 05:42:00,
2013-10-24 22:51:00,62.0,33.0,-100.00,North,3,7.0,12.0,33,0.00,,,0.00,0.000000,,2013-10-25 05:51:00,
2013-10-24 23:21:00,59.0,27.0,-100.00,NNE,19,5.0,14.0,29,0.00,,,0.00,0.000000,,2013-10-25 06:21:00,
2013-10-24 23:31:00,59.0,27.0,-100.00,NNE,19,5.0,14.0,29,0.00,,,0.00,0.000000,,2013-10-25 06:31:00,
2013-10-24 23:41:00,59.0,27.0,-100.00,NNE,19,5.0,14.0,29,0.00,,,0.00,0.000000,,2013-10-25 06:41:00,
2013-10-24 23:51:00,59.0,27.0,-100.00,NNE,19,5.0,14.0,29,0.00,,,0.00,0.000000,,2013-10-25 06:51:00,